Tucumcari, NM

4:45 AM MDT on July 25, 2017 (GMT -0600)
Tucumcari Municipal

Weather History for KTCC - January, 2012

Change the Weather History Date:

Monday, January 9, 2012

  Actual Average Record
Temperature  
Mean Temperature 34 °F -  
Max Temperature 48 °F 50 °F 78 °F (1948)
Min Temperature 19 °F 20 °F -6 °F (1977)
Degree Days  
Heating Degree Days 32    
Moisture  
Dew Point 18 °F    
Average Humidity 61    
Maximum Humidity 92    
Minimum Humidity 24    
Precipitation  
Precipitation 0.00 in - - ()
Sea Level Pressure  
Sea Level Pressure 30.23 in    
Wind  
Wind Speed 5 mph (NNW)    
Max Wind Speed 12 mph    
Max Gust Speed -    
Visibility 10 miles    
Events      
Averages and records for this station are not official NWS values.
T = Trace of Precipitation, MM = Missing Value Source: NWS Daily Summary

Daily Weather History Graph

Daily Weather History Graph

Search for Another Location

Airport or City:

Trip Planner

Search our weather history database for the weather conditions in past years. The results will help you decide how hot, cold, wet, or windy it might be!

Date:

Astronomy

Jan. 09, 2012 Rise Set
Actual Time 7:03 AM MST 4:59 PM MST
Civil Twilight 6:35 AM MST 5:27 PM MST
Nautical Twilight 6:04 AM MST 5:58 PM MST
Astronomical Twilight 5:33 AM MST 6:29 PM MST
Moon 5:45 PM MST (1/9) 7:07 AM MST (1/9)
Length of Visible Light 10h 52m
Length of Day
9h 56m
Full, 100% of the Moon is Illuminated
Jan 9
Full
Jan 16
Last Quarter
Jan 23
New
Jan 30
First Quarter
Feb 7
Full

Hourly Weather History & Observations

Time (MST) Temp. Windchill Dew Point Humidity Pressure Visibility Wind Dir Wind Speed Gust Speed Precip Events Conditions
12:53 AM 27.0 °F 23.0 °F 21.9 °F 81% 30.27 in 10.0 mi NW 3.5 mph - N/A   Partly Cloudy
1:53 AM 27.0 °F 20.5 °F 23.0 °F 85% 30.27 in 10.0 mi North 5.8 mph - N/A   Clear
2:53 AM 25.0 °F 19.3 °F 21.9 °F 88% 30.28 in 10.0 mi North 4.6 mph - N/A   Clear
3:53 AM 19.9 °F 13.4 °F 18.0 °F 92% 30.29 in 10.0 mi South 4.6 mph - N/A   Clear
4:53 AM 21.9 °F 14.5 °F 18.0 °F 85% 30.28 in 10.0 mi WNW 5.8 mph - N/A   Clear
5:53 AM 23.0 °F 13.9 °F 19.0 °F 85% 30.27 in 10.0 mi WNW 8.1 mph - N/A   Clear
6:53 AM 19.9 °F 11.1 °F 17.1 °F 89% 30.28 in 10.0 mi West 6.9 mph - N/A   Clear
7:53 AM 24.1 °F 18.2 °F 21.0 °F 88% 30.29 in 10.0 mi WSW 4.6 mph - N/A   Clear
8:53 AM 30.2 °F 25.4 °F 26.6 °F 86% 30.26 in 10.0 mi West 4.6 mph - N/A   Clear
9:53 AM 37.0 °F 31.6 °F 24.1 °F 59% 30.30 in 10.0 mi North 6.9 mph - N/A   Clear
10:53 AM 39.9 °F 34.5 °F 21.0 °F 47% 30.28 in 10.0 mi NNE 8.1 mph - N/A   Clear
11:53 AM 44.1 °F 41.5 °F 19.9 °F 38% 30.25 in 10.0 mi ENE 4.6 mph - N/A   Clear
12:53 PM 46.4 °F 42.9 °F 17.6 °F 32% 30.20 in 10.0 mi NNE 6.9 mph - N/A   Clear
1:53 PM 48.0 °F - 12.0 °F 24% 30.20 in 10.0 mi NE 11.5 mph - N/A   Clear
2:53 PM 48.9 °F - 12.9 °F 24% 30.20 in 10.0 mi NE 5.8 mph - N/A   Clear
3:53 PM 48.9 °F - 12.9 °F 24% 30.20 in 10.0 mi North 3.5 mph - N/A   Clear
4:53 PM 42.8 °F 40.1 °F 15.8 °F 34% 30.18 in 10.0 mi NNE 4.6 mph - N/A   Clear
5:53 PM 33.1 °F - 15.1 °F 48% 30.22 in 10.0 mi Calm Calm - N/A   Clear
6:53 PM 32.0 °F - 15.1 °F 50% 30.24 in 10.0 mi Calm Calm - N/A   Clear
7:53 PM 30.0 °F 24.1 °F 15.1 °F 54% 30.22 in 10.0 mi West 5.8 mph - N/A   Clear
8:53 PM 30.9 °F 22.2 °F 16.0 °F 54% 30.17 in 10.0 mi WNW 10.4 mph - N/A   Clear
9:53 PM 30.0 °F 21.7 °F 16.0 °F 56% 30.15 in 10.0 mi West 9.2 mph - N/A   Clear
10:53 PM 27.0 °F - 16.0 °F 63% 30.14 in 10.0 mi Calm Calm - N/A   Clear
11:53 PM 23.0 °F - 15.1 °F 72% 30.13 in 10.0 mi Calm Calm - N/A   Clear